Location: Bush Observatory
(40.2653°N, 94.3194°W)
Time: 00:26:09
(UTC-05:00)

Iridium 13 - Visible Passes

Search period start: 26 March 2017 00:00
Search period end: 05 April 2017 00:00
Orbit: 776 x 779 km, 86.4° (Epoch: 24 March)

Date Brightness Start Highest point End Pass type
(mag) Time Alt. Az. Time Alt. Az. Time Alt. Az.
02 Apr 8.5 01:51:12 10° N 01:51:25 11° N 01:51:25 11° N visible
03 Apr 8.4 01:17:44 10° N 01:18:02 12° N 01:18:02 12° N visible
04 Apr 8.5 00:44:36 10° NNE 00:44:40 10° NNE 00:44:40 10° NNE visible
